User: anonymous   Login
Location: Unspecified
(0.0000°N, 0.0000°E)
Time: 22:51:56
(UTC+00:00)
Language:

TERCEL - Orbit

View from above orbital plane
View from above orbital plane
View from above satellite
View from above satellite

Ground track
Ground track

The orbit data is extracted from the following two-line orbital elements,

1 20547U 90028B   20049.46931278  .00000195  00000-0  80746-5 0  9997
2 20547  94.1127 304.6474 0081661 211.1783 148.4604 15.24598646647898
Epoch (UTC): 18 February 2020 11:15:48
Eccentricity: 0.0081661
inclination: 94.1127°
perigee height: 436 km
apogee height: 548 km
right ascension of ascending node: 304.6474°
argument of perigee: 211.1783°
revolutions per day: 15.24598646
mean anomaly at epoch: 148.4604°
orbit number at epoch: 64789

The dashed part of the orbit path shows where the satellite is in the earth's shadow,  

DLR